#timestamp,LO_Frequency,Hit,StdDev 
1649289615.2,286046999.1,N
1649289635.9,286046999.0,N
1649289655.7,286046998.8,N
1649289675.6,286047001.9,N
1649289695.4,286047001.9,N
1649289715.2,286047002.4,N
1649289735.1,286047000.5,N
1649289736.0,286047000.5,N
1649289755.8,286047001.4,N
1649289775.7,286047002.1,N
1649289795.5,286047002.6,N
1649289815.3,286047001.5,N
1649289835.2,286046999.7,N
1649289855.0,286047000.5,N
1649289855.9,286047000.5,N
1649289875.8,286047002.5,N
1649289895.6,286047000.8,N
1649289915.4,286046998.9,N
1649289935.3,286046999.2,N
1649289955.1,286046996.6,N
1649289975.9,286046998.9,N
1649289995.7,286046998.1,N
1649290015.5,286046998.6,N
1649290035.4,286046998.8,N
1649290055.2,286046999.1,N
1649290075.0,286046997.0,N
1649290075.9,286046997.0,N
1649290095.8,286046996.9,N
1649290115.6,286046998.4,N
1649290135.5,286046998.5,N
1649290155.3,286046998.2,N
1649290175.1,286046999.1,N
1649290195.9,286046997.5,N
1649290215.7,286046999.1,N
1649290235.5,286046995.8,N
1649290255.4,286046997.8,N
1649290275.2,286046997.8,N
1649290295.1,286046997.5,N
1649290296.0,286046997.5,N
1649290315.8,286046996.5,N
1649290335.6,286046998.6,N
1649290355.5,286046999.4,N
1649290375.3,286046999.2,N
1649290395.1,286046997.0,N
1649290415.9,286046997.8,N
1649290435.7,286046999.5,N
1649290455.6,286046998.5,N
1649290475.4,286046999.0,N
1649290495.2,286047001.2,N
1649290515.1,286047000.3,N
1649290516.0,286047000.3,N
1649290535.8,286047001.2,N
1649290555.7,286047000.9,N
1649290575.5,286046998.4,N
1649290595.3,286046999.2,N
1649290615.2,286046999.6,N
1649290635.9,286046999.1,N
1649290655.7,286046997.7,N
1649290675.6,286046997.0,N
1649290695.4,286046999.4,N
1649290715.3,286047000.0,N
1649290735.1,286047000.4,N
1649290766.0,286047002.7,E
1649290775.0,286047000.9,N
1649290775.9,286047000.9,P
1649290795.8,286046997.2,P
1649290845.6,286046996.4,E
1649290855.6,286046997.4,N
1649290875.4,286046998.3,P
1649290895.2,286047001.0,N
1649290915.1,286047002.0,N
1649290916.0,286047002.0,N
1649290935.8,286046998.5,N
1649290955.7,286047000.8,N
1649290975.5,286047000.5,N
1649290995.3,286047001.0,N
1649291015.2,286046998.7,N
1649291035.0,286047000.3,N
1649291035.9,286047000.3,N
1649291055.7,286047000.5,N
1649291075.6,286046999.1,N
1649291095.4,286047001.0,N
1649291115.3,286046998.4,N
1649291135.1,286046998.1,N
1649291136.0,286046998.1,N
1649291155.8,286047000.7,N
1649291175.7,286046998.5,N
1649291195.5,286047000.1,N
1649291215.3,286046999.8,N
1649291235.2,286047001.4,N
1649291255.0,286047001.5,N
1649291255.9,286047001.5,N
1649291275.8,286047000.3,N
1649291295.6,286047000.3,N
1649291315.4,286047000.8,N
1649291335.3,286046998.1,N
1649291355.1,286046998.3,N
1649291375.8,286046998.8,N
1649291395.7,286046998.8,N
1649291415.5,286047000.0,N
1649291435.4,286047001.0,N
1649291455.2,286047000.4,N
1649291475.0,286047000.2,N
1649291475.9,286047000.2,N
1649291495.8,286046998.7,N
1649291515.6,286046999.9,N
1649291535.5,286047000.3,N
1649291555.3,286047002.3,N
1649291575.1,286047002.2,N
1649291595.9,286047002.7,N
1649291615.7,286047002.1,N
1649291635.6,286047002.8,N
1649291655.4,286047000.7,N
1649291675.2,286047000.1,N
1649291695.1,286047002.3,N
1649291696.0,286047002.3,N
1649291715.8,286046999.8,N
1649291735.7,286047002.1,N
1649291755.5,286047003.7,N
1649291775.3,286047003.3,N
1649291795.2,286047004.4,N
1649291815.0,286047002.2,N
1649291815.9,286047002.2,N
1649291835.8,286047001.4,N
1649291855.6,286047001.9,N
1649291875.4,286047002.7,N
1649291895.3,286047002.7,N
1649291915.1,286046999.9,N
1649291916.0,286046999.9,N
1649291935.8,286047001.0,N
1649291955.7,286047000.3,N
1649291975.5,286047002.2,N
1649291995.4,286047004.3,Y
1649292015.2,286047000.1,P
1649292035.0,286047000.0,N
1649292035.9,286047000.0,N
1649292055.8,286046998.6,N
1649292075.6,286046998.2,N
1649292095.4,286046998.7,N
1649292115.3,286046998.7,N
1649292165.2,286046999.1,E
1649292175.1,286047000.8,N
1649292176.0,286047000.8,P
1649292195.8,286047000.3,P
1649292215.7,286047000.3,N
1649292235.5,286046998.7,Y
1649292255.3,286046998.7,P
1649292275.2,286046997.7,N
1649292295.0,286046997.5,N
1649292295.9,286046997.5,N
1649292315.8,286046997.5,N
1649292335.6,286046997.9,N
1649292355.4,286046994.9,Y
1649292375.3,286046995.7,P
1649292395.1,286046996.1,P
1649292415.8,286046993.4,P
1649292435.7,286046994.5,Y
1649292455.5,286046996.5,P
1649292475.4,286046998.9,P
1649292495.2,286047001.1,N
1649292515.0,286047000.9,N
1649292515.9,286047000.9,N
1649292535.8,286047000.2,N
1649292555.6,286046998.1,N
1649292575.5,286046999.6,N
1649292595.3,286046995.3,N
1649292615.1,286046995.7,N
1649292635.9,286046995.0,N
1649292655.7,286046995.6,N
1649292675.6,286046997.3,N
1649292695.4,286046997.0,N
1649292715.2,286046996.9,N
1649292735.1,286046998.8,N
1649292736.0,286046998.8,N
1649292755.8,286046999.2,N
1649292775.6,286046995.0,N
1649292795.5,286046996.3,N
1649292815.3,286046993.5,Y
1649292835.2,286046997.3,P
1649292885.9,286046997.6,E
1649292895.8,286046999.6,N
1649292915.7,286046996.8,P
1649292935.5,286046998.0,N
1649292955.4,286046997.0,N
1649292975.2,286046998.6,N
1649292995.0,286046998.3,N
1649292995.9,286046998.3,N
1649293015.8,286046996.7,Y
1649293035.6,286046998.3,P
1649293055.5,286046999.6,P
1649293075.3,286046998.7,N
1649293095.1,286047000.9,N
1649293115.9,286047000.9,N
1649293135.7,286047001.2,N
1649293155.5,286046998.2,N
1649293175.4,286046998.2,N
1649293195.2,286046998.9,N
